Hattiesburg, MS

8:36 AM CDT on June 28, 2017 (GMT -0500)
Chain Municipal

Weather History for KHBG - January, 2010

Change the Weather History Date:

Saturday, January 23, 2010

  Actual Average Record
Temperature  
Mean Temperature 55 °F 48 °F  
Max Temperature 70 °F 60 °F 80 °F (1949)
Min Temperature 40 °F 37 °F 17 °F (1985)
Degree Days  
Heating Degree Days 10 17  
Month to date heating degree days 523 384  
Since 1 July heating degree days 1416 1169  
Cooling Degree Days 0 0  
Month to date cooling degree days 0 0  
Year to date cooling degree days 0 0  
Growing Degree Days 4 (Base 50)    
Moisture  
Dew Point 49 °F    
Average Humidity 79    
Maximum Humidity 100    
Minimum Humidity 57    
Precipitation  
Precipitation T in 0.20 in 3.81 in (1965)
Month to date precipitation 2.21 4.14  
Year to date precipitation 2.21 4.14  
Sea Level Pressure  
Sea Level Pressure 29.79 in    
Wind  
Wind Speed 10 mph (SE)    
Max Wind Speed 28 mph    
Max Gust Speed 35 mph    
Visibility 6 miles    
Events Fog , Rain    
T = Trace of Precipitation, MM = Missing Value Source: NWS Daily Summary

Daily Weather History Graph

Daily Weather History Graph

Search for Another Location

Airport or City:

Trip Planner

Search our weather history database for the weather conditions in past years. The results will help you decide how hot, cold, wet, or windy it might be!

Date:

Astronomy

Jan. 23, 2010 Rise Set
Actual Time 6:53 AM CST 5:24 PM CST
Civil Twilight 6:28 AM CST 5:49 PM CST
Nautical Twilight 5:58 AM CST 6:19 PM CST
Astronomical Twilight 5:29 AM CST 6:48 PM CST
Moon 11:09 AM CST (1/23) 12:15 AM CST (1/23)
Length of Visible Light 11h 21m
Length of Day
10h 30m
First Quarter, 53% of the Moon is Illuminated
Jan 23
First Quarter
Jan 30
Full
Feb 5
Last Quarter
Feb 13
New
Feb 21
First Quarter

Hourly Weather History & Observations

Time (CST) Temp. Windchill Dew Point Humidity Pressure Visibility Wind Dir Wind Speed Gust Speed Precip Events Conditions
12:53 AM 43.0 °F - 42.1 °F 97% 29.86 in 10.0 mi Calm Calm - N/A   Clear
1:53 AM 42.1 °F - 41.0 °F 96% 29.86 in 10.0 mi Calm Calm - N/A   Clear
2:53 AM 41.0 °F 39.0 °F 39.9 °F 96% 29.84 in 10.0 mi SSE 3.5 mph - N/A   Scattered Clouds
3:05 AM 39.2 °F - 39.2 °F 100% 29.84 in 4.0 mi Calm Calm - N/A   Mostly Cloudy
3:13 AM 41.0 °F - 39.2 °F 93% 29.84 in 2.5 mi Calm Calm - N/A   Overcast
3:25 AM 42.8 °F 40.1 °F 41.0 °F 93% 29.83 in 0.8 mi SE 4.6 mph - N/A   Mist
3:34 AM 44.6 °F - 44.6 °F 100% 29.83 in 0.2 mi Calm Calm - N/A Fog Fog
3:53 AM 44.1 °F - 44.1 °F 100% 29.83 in 0.2 mi Calm Calm - N/A Fog Fog
4:53 AM 44.1 °F - 44.1 °F 100% 29.83 in 0.2 mi Calm Calm - N/A Fog Fog
5:53 AM 43.0 °F - 42.1 °F 97% 29.84 in 0.2 mi Calm Calm - N/A Fog Fog
6:30 AM 42.8 °F - 41.0 °F 93% 29.85 in 0.5 mi Calm Calm - N/A Fog Fog
6:53 AM 41.0 °F - 41.0 °F 100% 29.85 in 0.5 mi Calm Calm - N/A Fog Fog
7:00 AM 41.0 °F - 39.2 °F 93% 29.84 in 0.2 mi Calm Calm - N/A Fog Fog
7:53 AM 43.0 °F - 43.0 °F 100% 29.85 in 0.2 mi Calm Calm - N/A Fog Fog
7:58 AM 42.8 °F - 42.8 °F 100% 29.85 in 1.0 mi Calm Calm - N/A   Mostly Cloudy
8:02 AM 42.8 °F - 42.8 °F 100% 29.84 in 2.0 mi Calm Calm - N/A   Mostly Cloudy
8:09 AM 44.6 °F - 44.6 °F 100% 29.84 in 3.0 mi Calm Calm - N/A   Scattered Clouds
8:53 AM 48.9 °F - 48.0 °F 97% 29.86 in 10.0 mi Calm Calm - N/A   Clear
9:53 AM 57.9 °F - 53.1 °F 84% 29.86 in 10.0 mi ESE 6.9 mph - N/A   Clear
10:53 AM 64.0 °F - 52.0 °F 65% 29.83 in 10.0 mi ESE 13.8 mph 23.0 mph N/A   Clear
11:53 AM 66.9 °F - 52.0 °F 59% 29.80 in 10.0 mi SE 15.0 mph - N/A   Mostly Cloudy
12:53 PM 69.1 °F - 53.1 °F 57% 29.75 in 10.0 mi SE 23.0 mph 31.1 mph N/A   Mostly Cloudy
1:53 PM 66.9 °F - 55.0 °F 66% 29.73 in 10.0 mi SE 16.1 mph - N/A   Overcast
2:29 PM 66.2 °F - 55.4 °F 68% 29.73 in 10.0 mi SE 18.4 mph - N/A   Overcast
2:53 PM 66.0 °F - 55.0 °F 68% 29.72 in 10.0 mi SE 19.6 mph 28.8 mph N/A   Overcast
3:53 PM 64.0 °F - 55.9 °F 75% 29.70 in 10.0 mi SE 21.9 mph 27.6 mph N/A   Overcast
4:53 PM 63.0 °F - 55.9 °F 78% 29.70 in 10.0 mi SSE 16.1 mph 27.6 mph N/A   Overcast
5:53 PM 62.1 °F - 55.9 °F 80% 29.72 in 10.0 mi SE 15.0 mph - N/A   Overcast
6:10 PM 60.8 °F - 55.4 °F 82% 29.72 in 10.0 mi SE 19.6 mph - N/A   Overcast
6:53 PM 61.0 °F - 57.0 °F 87% 29.70 in 10.0 mi SE 18.4 mph 25.3 mph N/A   Overcast
7:53 PM 61.0 °F - 57.0 °F 87% 29.70 in 9.0 mi SE 18.4 mph 26.5 mph N/A   Overcast
8:34 PM 60.8 °F - 57.2 °F 88% 29.71 in 8.0 mi SE 12.7 mph - N/A   Overcast
8:53 PM 61.0 °F - 57.0 °F 87% 29.71 in 8.0 mi SE 10.4 mph - N/A   Overcast
9:53 PM 60.1 °F - 57.9 °F 93% 29.70 in 7.0 mi SE 12.7 mph - N/A   Overcast
10:53 PM 60.1 °F - 59.0 °F 96% 29.66 in 6.0 mi SE 16.1 mph - 0.00 in Rain Light Rain
11:53 PM 61.0 °F - 60.1 °F 97% 29.65 in 3.0 mi SSE 13.8 mph - 0.00 in Rain Light Rain